QPF
0.00 0.00 0.01 0.01 0.01 0.02 0.02 0.03 0.03 0.02 0.04 0.03 0.02 0.01 0.01 0.02 0.02 0.02 0.04 0.06 0.07 0.09 0.09 0.04 0.02 0.02 0.02 0.02 0.03 0.02 0.03 0.03 0.03 0.02 0.03 0.03 0.02 0.02 0.02 0.01 0.01 0.01 0.01 0.01
0.00 0.00 0.00 0.01 0.01 0.01 0.01 0.02 0.01 0.01 0.01 0.01 0.01 0.01 0.01 0.01 0.02 0.01 0.02 0.04 0.06 0.07 0.12 0.08 0.04 0.02 0.02 0.02 0.03 0.03 0.03 0.03 0.02 0.03 0.03 0.03 0.03 0.02 0.02 0.02 0.01 0.01 0.01 0.01
0.00 0.00 0.00 0.00 0.01 0.01 0.01 0.01 0.02 0.01 0.01 0.01 0.00 0.00 0.01 0.01 0.01 0.01 0.01 0.02 0.04 0.05 0.08 0.09 0.07 0.04 0.02 0.02 0.03 0.03 0.02 0.02 0.02 0.02 0.03 0.03 0.03 0.03 0.02 0.02 0.02 0.01 0.01 0.01
0.00 0.01 0.01 0.00 0.01 0.01 0.01 0.01 0.01 0.01 0.01 0.01 0.00 0.00 0.00 0.01 0.00 0.01 0.01 0.02 0.02 0.04 0.05 0.05 0.06 0.06 0.04 0.03 0.02 0.03 0.03 0.02 0.02 0.02 0.02 0.02 0.02 0.02 0.03 0.03 0.02 0.01 0.01 0.01
0.01 0.01 0.01 0.01 0.01 0.01 0.02 0.01 0.01 0.02 0.01 0.01 0.00 0.00 0.00 0.00 0.00 0.00 0.01 0.01 0.01 0.01 0.02 0.03 0.04 0.05 0.05 0.05 0.04 0.03 0.03 0.02 0.02 0.02 0.02 0.02 0.03 0.02 0.02 0.03 0.02 0.01 0.01 0.01
0.01 0.02 0.01 0.02 0.02 0.02 0.02 0.02 0.01 0.01 0.01 0.01 0.01 0.01 0.00 0.00 0.00 0.00 0.00 0.01 0.01 0.01 0.01 0.01 0.02 0.03 0.05 0.05 0.05 0.04 0.05 0.04 0.03 0.02 0.02 0.02 0.02 0.02 0.02 0.03 0.02 0.02 0.02 0.02
0.01 0.01 0.01 0.03 0.03 0.03 0.04 0.03 0.01 0.01 0.01 0.01 0.01 0.01 0.01 0.00 0.00 0.00 0.00 0.01 0.01 0.01 0.01 0.01 0.02 0.03 0.05 0.07 0.06 0.05 0.06 0.05 0.03 0.02 0.02 0.02 0.02 0.01 0.02 0.03 0.03 0.03 0.02 0.02
0.02 0.02 0.03 0.03 0.03 0.02 0.02 0.01 0.01 0.01 0.01 0.01 0.01 0.01 0.01 0.00 0.00 0.01 0.01 0.01 0.01 0.01 0.01 0.01 0.01 0.02 0.05 0.08 0.05 0.04 0.04 0.04 0.02 0.02 0.01 0.02 0.02 0.02 0.02 0.04 0.03 0.03 0.03 0.03
0.02 0.02 0.02 0.03 0.03 0.03 0.03 0.02 0.01 0.01 0.01 0.01 0.01 0.01 0.00 0.00 0.00 0.01 0.01 0.01 0.00 0.00 0.01 0.02 0.02 0.02 0.05 0.07 0.06 0.04 0.04 0.03 0.02 0.01 0.01 0.02 0.02 0.02 0.03 0.03 0.03 0.03 0.03 0.02
0.02 0.01 0.01 0.01 0.02 0.02 0.03 0.03 0.01 0.01 0.01 0.01 0.01 0.00 0.00 0.00 0.01 0.01 0.01 0.00 0.00 0.00 0.01 0.01 0.01 0.03 0.06 0.08 0.07 0.04 0.04 0.02 0.01 0.01 0.01 0.01 0.02 0.02 0.02 0.03 0.03 0.03 0.03 0.03
0.01 0.01 0.01 0.00 0.01 0.01 0.03 0.04 0.02 0.01 0.00 0.00 0.00 0.00 0.00 0.00 0.02 0.02 0.01 0.00 0.01 0.01 0.01 0.01 0.01 0.02 0.07 0.08 0.06 0.05 0.04 0.02 0.01 0.01 0.01 0.01 0.02 0.02 0.02 0.02 0.03 0.03 0.03 0.04
0.01 0.01 0.01 0.00 0.00 0.01 0.02 0.03 0.03 0.02 0.01 0.01 0.00 0.00 0.00 0.01 0.03 0.02 0.01 0.01 0.01 0.01 0.00 0.00 0.00 0.01 0.06 0.08 0.05 0.03 0.03 0.03 0.03 0.02 0.01 0.01 0.02 0.02 0.02 0.02 0.03 0.03 0.04 0.04
0.00 0.00 0.00 0.00 0.00 0.00 0.01 0.02 0.03 0.03 0.03 0.02 0.01 0.01 0.01 0.02 0.04 0.03 0.02 0.01 0.01 0.01 0.01 0.01 0.02 0.02 0.04 0.07 0.05 0.03 0.02 0.03 0.03 0.03 0.03 0.03 0.02 0.01 0.02 0.02 0.03 0.03 0.04 0.05
0.00 0.00 0.01 0.00 0.00 0.00 0.01 0.01 0.02 0.02 0.03 0.03 0.03 0.03 0.03 0.04 0.05 0.03 0.02 0.02 0.02 0.02 0.02 0.02 0.03 0.04 0.05 0.07 0.06 0.04 0.03 0.02 0.02 0.02 0.03 0.04 0.03 0.02 0.01 0.03 0.04 0.03 0.04 0.04
0.01 0.01 0.01 0.01 0.00 0.00 0.00 0.01 0.01 0.01 0.02 0.03 0.03 0.03 0.03 0.04 0.05 0.03 0.03 0.02 0.02 0.02 0.02 0.02 0.03 0.03 0.05 0.07 0.07 0.05 0.02 0.01 0.01 0.01 0.02 0.02 0.03 0.02 0.01 0.02 0.03 0.03 0.02 0.03
0.02 0.01 0.01 0.01 0.00 0.00 0.00 0.00 0.00 0.01 0.01 0.01 0.02 0.02 0.02 0.03 0.04 0.03 0.03 0.02 0.02 0.02 0.02 0.02 0.03 0.03 0.04 0.05 0.06 0.04 0.02 0.02 0.02 0.02 0.02 0.02 0.03 0.03 0.03 0.02 0.02 0.02 0.02 0.02
0.03 0.02 0.01 0.01 0.00 0.00 0.00 0.00 0.00 0.00 0.00 0.01 0.01 0.01 0.01 0.01 0.02 0.01 0.01 0.01 0.01 0.01 0.01 0.01 0.02 0.03 0.03 0.03 0.04 0.04 0.02 0.02 0.02 0.01 0.01 0.02 0.02 0.03 0.03 0.02 0.02 0.02 0.02 0.02
0.03 0.03 0.02 0.01 0.01 0.00 0.00 0.00 0.00 0.00 0.00 0.00 0.01 0.01 0.01 0.01 0.01 0.01 0.01 0.01 0.01 0.00 0.00 0.01 0.01 0.01 0.02 0.02 0.03 0.03 0.02 0.01 0.01 0.01 0.01 0.01 0.02 0.02 0.02 0.03 0.02 0.02 0.03 0.03
0.02 0.02 0.02 0.01 0.01 0.01 0.00 0.00 0.00 0.00 0.00 0.00 0.01 0.01 0.01 0.01 0.01 0.01 0.00 0.00 0.00 0.00 0.00 0.01 0.01 0.01 0.01 0.02 0.02 0.03 0.01 0.01 0.01 0.01 0.01 0.02 0.02 0.02 0.03 0.03 0.04 0.04 0.05 0.04
0.02 0.02 0.02 0.02 0.02 0.01 0.00 0.00 0.00 0.00 0.00 0.00 0.00 0.00 0.00 0.00 0.00 0.00 0.00 0.00 0.01 0.01 0.01 0.01 0.01 0.01 0.01 0.02 0.03 0.03 0.02 0.01 0.01 0.01 0.02 0.02 0.02 0.02 0.02 0.02 0.03 0.03 0.03 0.03
0.01 0.01 0.01 0.02 0.02 0.02 0.02 0.00 0.00 0.00 0.00 0.00 0.01 0.01 0.01 0.00 0.00 0.00 0.00 0.00 0.01 0.01 0.01 0.01 0.01 0.01 0.01 0.02 0.02 0.02 0.01 0.01 0.01 0.02 0.02 0.02 0.02 0.02 0.02 0.02 0.02 0.02 0.02 0.02
0.01 0.01 0.01 0.01 0.01 0.01 0.02 0.02 0.01 0.00 0.00 0.00 0.00 0.01 0.02 0.01 0.01 0.01 0.01 0.01 0.01 0.02 0.01 0.01 0.01 0.01 0.01 0.02 0.02 0.02 0.01 0.01 0.01 0.01 0.01 0.02 0.02 0.02 0.02 0.02 0.02 0.02 0.02 0.02
0.01 0.01 0.01 0.01 0.01 0.01 0.01 0.01 0.01 0.00 0.00 0.00 0.00 0.00 0.01 0.01 0.01 0.02 0.02 0.02 0.02 0.02 0.02 0.02 0.02 0.02 0.02 0.02 0.01 0.01 0.01 0.02 0.02 0.01 0.01 0.01 0.01 0.01 0.02 0.02 0.02 0.02 0.02 0.02
0.01 0.01 0.00 0.00 0.00 0.00 0.00 0.01 0.00 0.00 0.00 0.00 0.00 0.00 0.01 0.01 0.01 0.00 0.01 0.01 0.01 0.01 0.01 0.01 0.01 0.01 0.02 0.01 0.01 0.01 0.02 0.02 0.02 0.02 0.02 0.02 0.01 0.01 0.02 0.02 0.02 0.02 0.02 0.02
0.01 0.01 0.01 0.00 0.01 0.01 0.01 0.01 0.00 0.00 0.00 0.00 0.00 0.00 0.00 0.01 0.01 0.01 0.01 0.01 0.01 0.01 0.01 0.01 0.01 0.01 0.01 0.01 0.01 0.01 0.02 0.03 0.03 0.03 0.02 0.02 0.01 0.01 0.01 0.01 0.01 0.01 0.01 0.01
0.01 0.01 0.01 0.01 0.01 0.01 0.01 0.00 0.00 0.00 0.00 0.01 0.01 0.01 0.00 0.00 0.01 0.01 0.01 0.01 0.01 0.01 0.01 0.01 0.01 0.01 0.01 0.01 0.01 0.02 0.03 0.03 0.03 0.03 0.03 0.02 0.01 0.01 0.01 0.01 0.01 0.01 0.01 0.01
0.00 0.01 0.01 0.01 0.01 0.01 0.00 0.00 0.00 0.00 0.00 0.00 0.01 0.01 0.01 0.01 0.01 0.01 0.01 0.01 0.01 0.01 0.01 0.01 0.01 0.01 0.01 0.01 0.02 0.02 0.02 0.02 0.02 0.01 0.01 0.01 0.01 0.01 0.01 0.01 0.01 0.01 0.01 0.01
MSLP
1007.76 1007.79 1008.06 1008.53 1009.13 1009.76 1010.33 1010.72 1010.88 1010.77 1010.40 1009.82 1009.13 1008.43 1007.82 1007.40 1007.20 1007.27 1007.58 1008.09 1008.76 1009.50 1010.27 1011.02 1011.73 1012.38 1013.00 1013.58 1014.16 1014.73 1015.31 1015.90 1016.49 1017.07 1017.64 1018.19 1018.73 1019.23 1019.72 1020.18 1020.63 1021.04 1021.43 1021.78
1007.83 1007.66 1007.69 1007.90 1008.24 1008.65 1009.03 1009.32 1009.45 1009.40 1009.17 1008.77 1008.27 1007.75 1007.27 1006.92 1006.74 1006.75 1006.96 1007.35 1007.89 1008.54 1009.25 1009.98 1010.73 1011.46 1012.17 1012.86 1013.54 1014.20 1014.84 1015.46 1016.07 1016.67 1017.25 1017.82 1018.38 1018.93 1019.46 1019.98 1020.48 1020.95 1021.38 1021.78
1008.05 1007.73 1007.57 1007.56 1007.67 1007.87 1008.08 1008.25 1008.34 1008.30 1008.14 1007.85 1007.48 1007.07 1006.68 1006.36 1006.15 1006.09 1006.19 1006.46 1006.88 1007.43 1008.09 1008.82 1009.60 1010.41 1011.22 1012.03 1012.81 1013.57 1014.28 1014.97 1015.61 1016.24 1016.84 1017.44 1018.03 1018.63 1019.22 1019.80 1020.36 1020.89 1021.38 1021.82
1008.45 1008.03 1007.73 1007.56 1007.49 1007.51 1007.57 1007.63 1007.64 1007.58 1007.43 1007.19 1006.87 1006.51 1006.13 1005.80 1005.54 1005.39 1005.37 1005.52 1005.83 1006.29 1006.89 1007.61 1008.42 1009.29 1010.20 1011.11 1012.00 1012.84 1013.64 1014.39 1015.10 1015.76 1016.41 1017.05 1017.69 1018.34 1019.00 1019.65 1020.27 1020.87 1021.41 1021.90
1009.03 1008.56 1008.18 1007.90 1007.71 1007.60 1007.54 1007.49 1007.42 1007.31 1007.13 1006.87 1006.55 1006.17 1005.77 1005.39 1005.05 1004.80 1004.67 1004.69 1004.88 1005.25 1005.79 1006.49 1007.30 1008.21 1009.18 1010.17 1011.14 1012.07 1012.94 1013.76 1014.53 1015.25 1015.96 1016.65 1017.36 1018.07 1018.79 1019.50 1020.20 1020.85 1021.45 1021.98
1009.76 1009.28 1008.87 1008.54 1008.29 1008.09 1007.94 1007.80 1007.65 1007.47 1007.24 1006.94 1006.57 1006.15 1005.70 1005.24 1004.81 1004.46 1004.22 1004.13 1004.22 1004.49 1004.95 1005.59 1006.38 1007.29 1008.27 1009.29 1010.30 1011.29 1012.22 1013.10 1013.93 1014.72 1015.48 1016.25 1017.01 1017.79 1018.58 1019.35 1020.10 1020.80 1021.44 1022.00
1010.60 1010.14 1009.74 1009.40 1009.12 1008.88 1008.68 1008.47 1008.26 1008.01 1007.72 1007.36 1006.94 1006.47 1005.96 1005.43 1004.93 1004.49 1004.16 1003.96 1003.94 1004.11 1004.48 1005.03 1005.75 1006.60 1007.55 1008.55 1009.56 1010.56 1011.53 1012.44 1013.32 1014.17 1015.00 1015.83 1016.66 1017.49 1018.33 1019.15 1019.94 1020.68 1021.35 1021.94
1011.46 1011.03 1010.67 1010.35 1010.08 1009.84 1009.60 1009.37 1009.11 1008.81 1008.46 1008.06 1007.60 1007.08 1006.53 1005.96 1005.41 1004.91 1004.50 1004.22 1004.11 1004.17 1004.42 1004.86 1005.47 1006.22 1007.08 1008.01 1008.97 1009.94 1010.90 1011.83 1012.74 1013.63 1014.51 1015.39 1016.28 1017.16 1018.03 1018.89 1019.70 1020.46 1021.14 1021.75
1012.23 1011.86 1011.53 1011.26 1011.01 1010.79 1010.55 1010.30 1010.02 1009.70 1009.33 1008.89 1008.41 1007.88 1007.32 1006.74 1006.17 1005.65 1005.20 1004.86 1004.66 1004.62 1004.75 1005.06 1005.53 1006.13 1006.86 1007.68 1008.55 1009.45 1010.37 1011.29 1012.21 1013.12 1014.03 1014.95 1015.86 1016.77 1017.67 1018.54 1019.36 1020.13 1020.82 1021.44
1012.81 1012.48 1012.21 1011.97 1011.77 1011.57 1011.35 1011.11 1010.83 1010.50 1010.13 1009.70 1009.23 1008.71 1008.17 1007.62 1007.08 1006.57 1006.12 1005.75 1005.49 1005.36 1005.37 1005.53 1005.84 1006.29 1006.85 1007.52 1008.27 1009.08 1009.93 1010.81 1011.71 1012.62 1013.55 1014.48 1015.41 1016.33 1017.23 1018.10 1018.92 1019.69 1020.39 1021.02
1013.09 1012.79 1012.56 1012.37 1012.21 1012.05 1011.86 1011.64 1011.38 1011.07 1010.71 1010.32 1009.88 1009.42 1008.94 1008.45 1007.96 1007.50 1007.07 1006.70 1006.40 1006.20 1006.11 1006.13 1006.29 1006.57 1006.97 1007.48 1008.09 1008.79 1009.55 1010.37 1011.23 1012.13 1013.05 1013.98 1014.91 1015.83 1016.72 1017.58 1018.40 1019.17 1019.88 1020.53
1012.97 1012.71 1012.52 1012.38 1012.26 1012.14 1011.99 1011.80 1011.57 1011.29 1010.98 1010.63 1010.25 1009.86 1009.46 1009.05 1008.65 1008.25 1007.88 1007.53 1007.22 1006.97 1006.79 1006.70 1006.72 1006.85 1007.09 1007.45 1007.93 1008.51 1009.19 1009.94 1010.76 1011.63 1012.53 1013.44 1014.36 1015.27 1016.15 1017.00 1017.81 1018.58 1019.31 1019.99
1012.46 1012.24 1012.09 1012.00 1011.93 1011.85 1011.74 1011.60 1011.40 1011.17 1010.90 1010.61 1010.30 1009.99 1009.67 1009.36 1009.05 1008.73 1008.41 1008.10 1007.80 1007.53 1007.29 1007.11 1007.01 1007.01 1007.12 1007.36 1007.72 1008.20 1008.79 1009.48 1010.26 1011.09 1011.97 1012.87 1013.77 1014.66 1015.53 1016.37 1017.18 1017.96 1018.71 1019.43
1011.61 1011.43 1011.34 1011.30 1011.28 1011.25 1011.19 1011.09 1010.94 1010.75 1010.53 1010.30 1010.05 1009.82 1009.59 1009.36 1009.13 1008.89 1008.64 1008.37 1008.08 1007.80 1007.52 1007.28 1007.10 1007.00 1007.01 1007.15 1007.41 1007.81 1008.34 1008.98 1009.71 1010.52 1011.37 1012.25 1013.13 1014.01 1014.87 1015.70 1016.52 1017.31 1018.09 1018.86
1010.53 1010.41 1010.37 1010.39 1010.43 1010.46 1010.46 1010.40 1010.30 1010.16 1009.98 1009.80 1009.61 1009.44 1009.27 1009.11 1008.95 1008.77 1008.57 1008.33 1008.06 1007.77 1007.47 1007.19 1006.96 1006.79 1006.73 1006.80 1007.00 1007.35 1007.83 1008.43 1009.13 1009.91 1010.75 1011.61 1012.47 1013.34 1014.19 1015.02 1015.85 1016.66 1017.47 1018.27
1009.37 1009.31 1009.34 1009.43 1009.54 1009.63 1009.68 1009.68 1009.62 1009.52 1009.38 1009.23 1009.09 1008.95 1008.83 1008.71 1008.59 1008.45 1008.27 1008.06 1007.80 1007.50 1007.19 1006.88 1006.61 1006.41 1006.31 1006.34 1006.50 1006.81 1007.27 1007.84 1008.53 1009.29 1010.10 1010.95 1011.81 1012.66 1013.50 1014.33 1015.16 1015.99 1016.82 1017.66
1008.28 1008.29 1008.40 1008.57 1008.74 1008.89 1009.00 1009.04 1009.01 1008.94 1008.83 1008.71 1008.58 1008.46 1008.36 1008.25 1008.14 1008.01 1007.84 1007.63 1007.36 1007.06 1006.73 1006.41 1006.12 1005.90 1005.78 1005.79 1005.94 1006.23 1006.67 1007.24 1007.91 1008.66 1009.46 1010.30 1011.14 1011.98 1012.81 1013.64 1014.47 1015.30 1016.14 1016.99
1007.40 1007.49 1007.67 1007.90 1008.13 1008.33 1008.48 1008.55 1008.55 1008.50 1008.41 1008.29 1008.17 1008.04 1007.93 1007.81 1007.69 1007.54 1007.35 1007.11 1006.83 1006.51 1006.16 1005.83 1005.53 1005.30 1005.17 1005.18 1005.33 1005.62 1006.06 1006.63 1007.29 1008.04 1008.83 1009.65 1010.48 1011.30 1012.12 1012.94 1013.76 1014.58 1015.42 1016.27
1006.82 1006.97 1007.21 1007.49 1007.76 1007.99 1008.15 1008.24 1008.25 1008.21 1008.11 1007.98 1007.84 1007.70 1007.55 1007.40 1007.24 1007.05 1006.82 1006.54 1006.22 1005.87 1005.51 1005.16 1004.85 1004.62 1004.50 1004.52 1004.68 1004.98 1005.43 1006.00 1006.67 1007.41 1008.20 1009.00 1009.81 1010.62 1011.42 1012.21 1013.01 1013.82 1014.64 1015.48
1006.57 1006.76 1007.02 1007.32 1007.60 1007.83 1007.99 1008.07 1008.07 1008.01 1007.89 1007.74 1007.57 1007.39 1007.20 1007.00 1006.78 1006.53 1006.25 1005.92 1005.56 1005.17 1004.78 1004.41 1004.10 1003.88 1003.77 1003.80 1003.97 1004.30 1004.76 1005.34 1006.02 1006.76 1007.54 1008.33 1009.13 1009.91 1010.69 1011.45 1012.23 1013.01 1013.80 1014.61
1006.59 1006.80 1007.06 1007.33 1007.59 1007.79 1007.91 1007.96 1007.93 1007.84 1007.69 1007.50 1007.29 1007.06 1006.82 1006.56 1006.28 1005.96 1005.61 1005.22 1004.81 1004.38 1003.96 1003.57 1003.25 1003.04 1002.94 1002.99 1003.19 1003.54 1004.03 1004.62 1005.31 1006.05 1006.82 1007.61 1008.39 1009.15 1009.90 1010.65 1011.39 1012.13 1012.90 1013.68
1006.83 1007.01 1007.24 1007.46 1007.65 1007.79 1007.86 1007.85 1007.77 1007.63 1007.44 1007.21 1006.95 1006.67 1006.37 1006.05 1005.69 1005.31 1004.89 1004.44 1003.96 1003.49 1003.03 1002.63 1002.31 1002.10 1002.02 1002.10 1002.32 1002.70 1003.20 1003.82 1004.52 1005.27 1006.04 1006.82 1007.58 1008.33 1009.06 1009.78 1010.49 1011.21 1011.95 1012.71
1007.19 1007.33 1007.48 1007.62 1007.73 1007.78 1007.76 1007.68 1007.54 1007.34 1007.10 1006.83 1006.52 1006.19 1005.84 1005.45 1005.03 1004.57 1004.09 1003.57 1003.04 1002.52 1002.03 1001.61 1001.29 1001.08 1001.02 1001.12 1001.37 1001.77 1002.30 1002.94 1003.65 1004.41 1005.18 1005.96 1006.72 1007.46 1008.17 1008.87 1009.56 1010.26 1010.98 1011.72
1007.59 1007.65 1007.71 1007.75 1007.75 1007.70 1007.60 1007.44 1007.23 1006.98 1006.69 1006.38 1006.03 1005.65 1005.24 1004.80 1004.32 1003.80 1003.24 1002.66 1002.08 1001.52 1001.00 1000.57 1000.24 1000.04 999.99 1000.11 1000.39 1000.81 1001.36 1002.01 1002.74 1003.50 1004.29 1005.06 1005.82 1006.55 1007.26 1007.95 1008.63 1009.32 1010.02 1010.75
1007.95 1007.92 1007.88 1007.80 1007.70 1007.55 1007.36 1007.13 1006.86 1006.57 1006.24 1005.89 1005.51 1005.09 1004.64 1004.15 1003.61 1003.04 1002.42 1001.79 1001.17 1000.57 1000.03 999.58 999.25 999.05 999.02 999.15 999.45 999.89 1000.45 1001.11 1001.85 1002.62 1003.40 1004.17 1004.93 1005.66 1006.37 1007.05 1007.74 1008.42 1009.13 1009.85
1008.22 1008.09 1007.94 1007.77 1007.56 1007.32 1007.06 1006.77 1006.47 1006.14 1005.79 1005.41 1005.01 1004.57 1004.09 1003.56 1002.98 1002.36 1001.70 1001.03 1000.37 999.75 999.20 998.74 998.41 998.22 998.20 998.34 998.65 999.09 999.66 1000.33 1001.05 1001.82 1002.60 1003.37 1004.12 1004.85 1005.56 1006.25 1006.94 1007.63 1008.34 1009.08
1008.36 1008.14 1007.89 1007.62 1007.33 1007.03 1006.72 1006.39 1006.06 1005.71 1005.35 1004.97 1004.56 1004.11 1003.61 1003.06 1002.46 1001.81 1001.13 1000.44 999.77 999.14 998.58 998.13 997.81 997.63 997.62 997.77 998.08 998.53 999.09 999.74 1000.45 1001.20 1001.96 1002.71 1003.45 1004.18 1004.89 1005.58 1006.28 1006.99 1007.72 1008.47
Thickness
5662 5667 5667 5667 5668 5668 5660 5654 5645 5651 5655 5664 5669 5673 5675 5675 5674 5673 5672 5672 5673 5672 5672 5672 5673 5673 5673 5672 5671 5671 5669 5667 5666 5665 5664 5662 5661 5660 5660 5659 5659 5658 5657 5656
5655 5663 5662 5660 5664 5664 5662 5658 5654 5653 5654 5665 5668 5668 5666 5666 5666 5665 5665 5666 5667 5666 5665 5666 5666 5666 5667 5666 5665 5664 5662 5661 5661 5659 5657 5656 5655 5654 5653 5652 5652 5652 5651 5651
5638 5648 5651 5644 5656 5658 5656 5657 5653 5645 5651 5658 5656 5658 5659 5659 5659 5658 5658 5658 5658 5657 5657 5658 5659 5660 5660 5660 5660 5659 5657 5656 5654 5653 5651 5650 5650 5648 5647 5646 5646 5645 5646 5646
5626 5634 5627 5644 5657 5657 5652 5651 5652 5651 5651 5652 5652 5652 5654 5654 5653 5652 5652 5651 5651 5650 5651 5652 5653 5654 5654 5654 5654 5653 5652 5650 5649 5647 5645 5645 5643 5642 5641 5640 5639 5639 5640 5640
5615 5615 5623 5640 5649 5648 5643 5638 5645 5643 5644 5643 5644 5642 5641 5647 5648 5646 5646 5646 5645 5646 5645 5645 5646 5647 5647 5646 5646 5646 5645 5645 5644 5643 5640 5638 5637 5636 5636 5635 5634 5634 5634 5635
5610 5610 5611 5630 5644 5649 5639 5625 5637 5637 5635 5635 5634 5621 5626 5638 5639 5639 5640 5641 5640 5640 5640 5640 5640 5641 5640 5639 5639 5639 5640 5640 5640 5638 5635 5633 5633 5632 5631 5630 5629 5629 5629 5629
5604 5602 5611 5629 5638 5638 5615 5616 5629 5630 5629 5627 5622 5620 5625 5630 5631 5632 5633 5634 5634 5635 5634 5635 5635 5635 5633 5634 5634 5635 5635 5634 5633 5632 5631 5629 5628 5627 5625 5625 5623 5623 5622 5623
5598 5596 5605 5628 5628 5618 5616 5622 5623 5622 5622 5621 5620 5621 5622 5623 5624 5625 5626 5627 5628 5627 5627 5628 5628 5628 5627 5627 5629 5629 5628 5627 5626 5625 5624 5624 5621 5620 5619 5618 5616 5615 5614 5615
5603 5606 5616 5621 5620 5621 5620 5617 5617 5616 5617 5616 5615 5614 5616 5617 5618 5619 5621 5621 5622 5621 5620 5620 5621 5621 5620 5621 5622 5622 5621 5619 5619 5618 5617 5616 5615 5613 5612 5611 5610 5608 5607 5607
5601 5607 5611 5614 5616 5617 5616 5614 5614 5613 5612 5611 5609 5609 5609 5610 5610 5612 5614 5614 5614 5614 5612 5612 5613 5614 5614 5615 5615 5614 5613 5612 5611 5610 5609 5608 5607 5606 5605 5603 5603 5602 5601 5600
5594 5600 5603 5607 5608 5609 5610 5610 5609 5608 5607 5606 5605 5604 5603 5603 5604 5605 5606 5607 5607 5606 5605 5605 5607 5607 5608 5608 5608 5606 5605 5604 5603 5603 5601 5600 5600 5599 5599 5599 5598 5597 5597 5596
5590 5597 5593 5597 5602 5603 5602 5602 5601 5600 5599 5600 5599 5597 5597 5596 5597 5598 5598 5599 5599 5598 5598 5599 5600 5600 5601 5602 5601 5599 5597 5596 5595 5594 5593 5592 5591 5590 5591 5591 5592 5592 5591 5591
5595 5597 5595 5596 5597 5598 5596 5595 5595 5594 5593 5592 5591 5590 5589 5589 5590 5590 5591 5591 5591 5591 5592 5592 5593 5593 5594 5594 5594 5593 5591 5589 5588 5587 5586 5584 5583 5581 5580 5581 5582 5582 5582 5582
5592 5590 5587 5589 5589 5591 5590 5590 5589 5587 5586 5585 5584 5583 5582 5582 5582 5582 5583 5584 5585 5585 5585 5585 5585 5585 5587 5586 5585 5584 5583 5583 5581 5579 5578 5576 5575 5574 5573 5571 5571 5571 5572 5572
5585 5583 5582 5583 5583 5583 5583 5581 5579 5578 5577 5577 5577 5576 5575 5574 5573 5574 5575 5576 5576 5576 5576 5577 5577 5577 5578 5578 5576 5575 5574 5574 5573 5571 5570 5568 5567 5566 5564 5563 5562 5562 5561 5561
5577 5577 5576 5575 5575 5575 5574 5572 5570 5569 5569 5569 5569 5568 5568 5567 5567 5567 5567 5567 5567 5566 5567 5567 5568 5569 5569 5568 5567 5566 5565 5566 5565 5562 5560 5559 5557 5556 5555 5554 5553 5552 5551 5551
5569 5567 5568 5567 5567 5567 5565 5564 5563 5562 5562 5561 5560 5560 5560 5559 5558 5558 5558 5558 5558 5558 5558 5558 5559 5560 5559 5559 5557 5556 5555 5555 5555 5553 5551 5550 5548 5547 5546 5544 5543 5542 5542 5542
5566 5565 5563 5562 5559 5557 5556 5556 5555 5554 5553 5553 5553 5552 5550 5549 5548 5548 5548 5549 5549 5548 5549 5549 5550 5550 5549 5549 5548 5547 5545 5545 5544 5544 5542 5541 5539 5538 5536 5535 5534 5533 5532 5532
5559 5557 5556 5554 5552 5550 5548 5547 5546 5545 5545 5545 5544 5542 5542 5541 5540 5539 5538 5538 5538 5538 5539 5540 5541 5540 5539 5539 5539 5538 5536 5536 5535 5534 5532 5531 5529 5528 5526 5525 5525 5524 5523 5521
5552 5550 5547 5546 5545 5542 5540 5539 5538 5536 5536 5535 5534 5533 5532 5531 5531 5530 5529 5528 5528 5529 5530 5531 5530 5530 5530 5530 5530 5529 5527 5526 5525 5524 5523 5521 5520 5519 5518 5517 5515 5514 5513 5511
5543 5541 5540 5537 5535 5534 5533 5531 5529 5528 5527 5526 5525 5524 5523 5522 5521 5520 5519 5518 5520 5520 5521 5522 5521 5521 5520 5521 5521 5519 5517 5516 5515 5514 5513 5513 5512 5510 5509 5508 5507 5505 5504 5503
5533 5531 5530 5528 5526 5525 5524 5522 5521 5520 5519 5518 5517 5515 5514 5512 5511 5511 5510 5510 5511 5512 5512 5512 5512 5513 5513 5513 5511 5509 5508 5508 5507 5505 5504 5503 5502 5501 5500 5499 5498 5498 5497 5496
5523 5523 5521 5519 5518 5516 5515 5514 5512 5512 5510 5509 5508 5506 5505 5503 5503 5502 5502 5503 5503 5505 5504 5504 5505 5506 5505 5503 5502 5501 5500 5499 5498 5497 5495 5494 5494 5493 5492 5491 5491 5490 5489 5488
5514 5513 5512 5511 5509 5507 5505 5504 5503 5503 5502 5501 5500 5498 5497 5496 5495 5495 5495 5496 5497 5497 5497 5497 5497 5497 5496 5494 5493 5492 5491 5490 5489 5488 5487 5486 5486 5485 5485 5484 5483 5482 5482 5481
5505 5504 5503 5501 5499 5498 5497 5496 5495 5494 5493 5492 5492 5491 5490 5489 5488 5488 5487 5488 5489 5489 5488 5489 5489 5488 5486 5485 5484 5483 5482 5482 5481 5480 5479 5478 5478 5478 5477 5476 5475 5475 5474 5473
5497 5496 5495 5493 5492 5490 5489 5488 5487 5486 5485 5485 5484 5483 5483 5482 5481 5481 5480 5480 5480 5481 5480 5479 5479 5479 5478 5477 5476 5475 5474 5474 5473 5472 5471 5471 5471 5470 5470 5469 5468 5467 5466 5465
5490 5488 5487 5485 5484 5483 5482 5481 5479 5479 5478 5478 5477 5476 5475 5475 5474 5473 5473 5472 5472 5471 5471 5471 5471 5471 5470 5469 5469 5468 5467 5467 5466 5465 5465 5464 5464 5463 5462 5461 5460 5459 5458 5457